Tracking 29933 objects as of 2-Dec-2024
HD Live streaming from Space Station
objects crossing your sky now

STARLINK-11128

Track STARLINK-11128 now!
10-day predictions
STARLINK-11128 is classified as:


NORAD ID: 60302
Int'l Code: 2024-133B
Perigee: 366.3 km
Apogee: 367.4 km
Inclination: 53.2 °
Period: 91.7 minutes
Semi major axis: 6737 km
RCS: Unknown
Launch date: July 28, 2024
Source: United States (US)
Launch site: AIR FORCE WESTERN TEST RANGE (AFWTR)
Your satellite tracking list
Your tracking list is empty




NASA's NSSDC Master Catalog

Two Line Element Set (TLE):
1 60302U 24133B   24336.82461656 -.00000376  00000-0  17518-5 0  9994
2 60302  53.1595 268.1472 0000854  82.9334 277.1781 15.69710874 21034
Source of the keplerian elements: AFSPC